{"data":{"norad_id":68451,"epoch":"2026-09-20T03:42:57.763872Z","epoch_age_seconds":98648,"freshness":"FRESH","line1":"1 68451U 26067AM  26263.15483523  .00005462  00000+0  25703-3 0  9991","line2":"2 68451  97.4606 220.4167 0003531  71.8067 288.3552 15.19961804 26365","mean_motion":15.19961804,"eccentricity":0.0003531,"inclination_deg":97.4606,"raan_deg":220.4167,"arg_perigee_deg":71.8067,"mean_anomaly_deg":288.3552,"bstar":0.00025703,"rev_number":2636,"period_min":94.739222802207,"perigee_km":503.52516768038,"apogee_km":508.38671411524,"semimajor_km":6884.0929408978,"source":"CELESTRAK","updated_at":"2026-09-20T09:00:24.208786Z"}}